SCP
0 0 0 0 0 0 0 0 0 0 0 0 0 0 0 0 0 0 0 0 0 0 0 0 0 -0 -0 -0 -0 0 0 0 0 0 0 0 0 0 0 0 0 0 0 0
0 0 0 0 0 0 0 0 0 0 0 0 0 0 0 0 0 0 0 0 0 0 0 0 -0 -0 -0 -0 -0 -0 -0 -0 -0 -0 -0 -0 -0 -0 -0 0 0 0 0 0
0 0 0 0 0 0 0 0 0 0 0 0 0 0 0 0 0 0 0 0 0 0 0 0 -0 -0 -0 -0 -0 -0 -0 -0 -0 -0 -0 -0 -0 -0 0 0 0 0 0 0
0 0 0 0 0 0 0 0 0 0 0 0 0 0 0 0 0 0 0 0 0 0 0 0 0 0 0 0 -0 -0 -0 -0 -0 -0 -0 -0 -0 -0 -0 -0 0 0 0 0
0 0 0 0 0 0 0 0 0 0 0 0 0 0 0 0 0 0 0 0 0 0 0 0 0 0 0 0 0 0 0 -0 -0 -0 -0 -0 -0 -0 -0 -0 0 0 0 0
0 0 0 0 0 0 0 0 0 0 0 0 0 0 0 0 0 0 0 0 0 0 0 0 0 0 0 0 0 0 0 0 0 0 0 0 0 0 0 0 0 0 0 0
0 0 0 0 0 0 0 0 0 0 0 0 0 0 0 0 0 0 0 0 0 0 0 0 0 0 0 0 0 0 0 0 0 0 0 0 0 0 0 0 0 0 0 0
0 0 0 0 0 0 0 0 0 0 0 0 0 0 0 0 0 0 0 0 0 0 0 0 0 0 0 0 0 0 0 0 0 0 0 0 0 0 0 0 0 0 0 0
0 0 0 0 0 0 0 0 0 0 0 0 0 0 0 0 0 0 0 0 0 0 0 0 0 0 0 0 0 0 0 0 0 0 0 0 0 0 0 0 0 0 0 0
0 0 0 0 0 0 0 0 0 0 0 0 0 0 0 0 0 0 0 0 0 0 0 0 0 0 0 0 0 0 0 0 0 0 0 0 0 0 0 0 0 0 0 0
0 0 0 0 0 0 0 0 0 0 0 0 0 0 0 0 0 0 0 0 0 0 0 0 0 0 0 0 0 0 0 0 0 0 0 0 0 0 0 0 0 0 0 0
0 0 0 0 0 0 0 0 0 0 0 0 0 0 0 0 0 0 0 0 0 0 0 0 0 0 0 0 0 0 0 0 0 0 0 0 0 0 0 0 0 0 0 0
0 0 0 0 0 0 0 0 0 0 0 0 0 0 0 0 0 0 0 0 0 0 0 0 0 0 0 0 0 0 0 0 0 0 0 0 0 0 0 0 0 0 0 0
0 0 0 0 0 0 0 0 0 0 0 0 0 0 0 0 0 0 0 0 0 0 0 0 0 0 0 0 0 0 0 0 0 0 0 0 0 0 0 0 0 0 0 0
0 0 0 0 0 0 0 0 0 0 0 0 0 0 0 0 0 0 0 0 0 0 0 0 0 0 0 0 0 0 0 0 0 0 0 0 0 0 0 0 0 0 0 0
0 0 0 0 0 0 0 0 0 0 0 0 0 0 0 0 0 0 0 0 0 0 0 0 0 0 0 0 0 0 0 0 0 0 0 0 0 0 0 0 0 0 0 0
0 0 0 0 0 0 0 0 0 0 0 0 0 0 0 0 0 0 0 0 0 0 0 0 0 0 0 0 0 0 0 0 0 0 0 0 0 0 0 0 0 0 0 0
0 0 0 0 0 0 0 0 0 0 0 0 0 0 0 0 0 0 0 0 0 0 0 0 0 0 0 0 0 0 0 0 0 0 0 0 0 0 0 0 0 0 0 0
0 0 0 0 0 0 0 0 0 0 0 0 0 0 0 0 0 0 0 0 0 0 0 0 0 0 0 0 0 0 0 0 0 0 0 0 0 0 0 0 0 0 0 0
0 0 0 0 0 0 0 0 0 0 0 0 0 0 0 0 0 0 0 0 0 0 0 0 0 0 0 0 0 0 0 0 0 0 0 0 0 0 0 0 0 0 0 0
0 0 0 0 0 0 0 0 0 0 0 0 0 0 0 0 0 0 0 0 0 0 0 0 0 0 0 0 0 0 0 0 0 0 0 0 0 0 0 0 0 0 0 0
0 0 0 0 0 0 0 0 0 0 0 0 0 0 0 0 0 0 0 0 0 0 0 0 0 0 0 0 0 0 0 0 0 0 0 0 0 0 0 0 0 0 0 0
0 0 0 0 0 0 0 0 0 0 0 0 0 0 0 0 0 0 0 0 0 0 0 0 0 0 0 0 0 0 0 0 0 0 0 0 0 0 0 0 0 0 0 0
0 0 0 0 0 0 0 0 0 0 0 0 0 0 0 0 0 0 0 0 0 0 0 0 0 0 0 0 0 0 0 0 0 0 0 0 0 0 0 0 0 0 0 0
0 0 0 0 0 0 0 0 0 0 0 0 0 0 0 0 0 0 0 0 0 0 0 0 0 0 0 0 0 0 0 0 0 0 0 0 0 0 0 0 0 0 0 0
0 0 0 0 0 0 0 0 0 0 0 0 0 0 0 0 0 0 0 0 0 0 0 0 0 0 0 0 0 0 0 0 0 0 0 0 0 0 0 0 0 0 0 0
Wind_Speed_500mb
10 10 7 6 1 3 8 9 9 2 2 2 7 11 15 26 25 27 22 19 14 3 2 8 15 19 24 28 32 37 39 44 45 50 51 52 56 54 53 56 58 57 56 53
12 5 3 5 6 8 8 10 4 3 2 4 1 12 16 31 31 36 30 27 24 15 9 2 7 14 21 26 30 34 39 43 46 49 51 52 51 53 56 55 55 56 59 61
9 4 3 6 9 9 8 7 6 2 1 4 5 12 12 17 37 41 37 33 29 18 9 3 4 13 20 26 32 35 39 42 45 46 46 46 46 49 50 56 60 63 62 62
11 3 4 8 6 4 5 0 3 5 7 7 8 8 11 14 26 30 50 42 35 20 9 3 5 12 19 25 30 32 36 39 42 44 48 52 54 55 55 56 55 57 59 62
3 4 5 5 3 2 4 5 6 2 4 2 7 2 11 14 20 31 47 52 40 23 11 6 8 13 17 20 23 27 31 34 37 40 44 46 48 49 50 50 51 54 57 59
6 3 4 5 4 6 10 7 7 6 4 4 6 8 9 14 22 13 34 56 45 30 17 9 8 14 17 19 20 24 27 30 33 36 39 41 44 46 49 51 54 55 56 59
2 3 1 3 8 5 2 7 5 8 6 10 1 4 18 11 12 22 47 62 51 35 23 14 10 13 16 20 23 24 26 27 30 34 37 40 43 44 47 50 53 56 59 59
11 8 7 2 2 11 8 10 9 12 6 5 7 13 13 10 13 22 49 63 52 40 29 20 12 14 17 21 24 26 28 27 29 31 34 38 42 43 43 45 46 48 52 56
9 3 1 6 2 3 6 7 7 13 3 7 7 14 14 5 4 19 39 57 52 42 34 23 15 17 19 24 24 26 29 31 32 33 34 37 42 44 44 42 43 46 49 53
7 7 3 2 3 3 7 6 6 5 3 8 8 11 13 11 15 12 24 54 50 41 34 27 23 19 21 25 25 24 27 34 36 37 38 39 43 47 45 44 43 46 49 53
6 6 1 6 10 12 1 3 4 4 8 10 3 12 11 14 23 30 37 55 48 40 32 26 26 24 25 27 25 20 25 36 39 39 40 41 45 48 48 46 45 47 49 52
7 8 7 11 2 3 7 10 9 8 11 5 4 15 5 7 12 36 47 48 41 37 28 29 32 33 35 30 23 24 30 39 42 44 44 43 45 49 48 47 46 48 49 52
10 2 5 9 8 7 6 9 7 7 5 12 11 12 2 1 2 21 33 32 29 26 29 34 39 41 36 28 26 27 32 42 45 49 47 45 47 50 49 48 50 50 52 54
8 5 11 12 9 8 6 5 11 11 7 7 19 8 7 10 11 15 26 25 14 29 36 37 39 34 32 32 32 31 40 46 46 48 49 47 48 52 52 52 52 51 53 56
8 9 4 7 8 6 9 9 15 21 20 16 25 25 15 14 19 38 33 22 19 24 24 25 26 30 36 39 37 38 48 50 46 40 45 48 52 55 54 55 53 52 55 57
4 4 5 7 2 12 13 17 18 33 38 32 39 55 15 28 20 25 36 46 36 25 26 27 33 39 42 40 42 45 54 51 41 40 45 50 56 57 56 56 53 53 55 58
10 11 6 11 7 9 18 25 43 13 10 30 26 40 12 6 22 30 27 23 25 26 26 30 33 38 44 47 44 54 54 47 46 44 50 54 54 54 57 55 54 54 55 59
10 8 5 6 7 4 12 6 9 35 23 31 22 14 16 22 30 16 18 26 23 22 25 28 32 36 40 43 49 60 48 46 48 52 54 56 55 55 55 55 54 54 56 60
7 9 3 6 7 16 18 9 13 15 19 32 44 45 27 22 16 41 34 18 17 17 25 34 39 44 45 51 60 54 51 51 55 58 59 58 56 54 55 54 55 55 57 60
8 7 7 5 8 15 10 6 11 10 12 22 35 24 25 27 4 9 11 16 20 25 33 42 47 48 52 54 56 56 58 59 61 60 63 60 53 53 55 55 54 54 57 61
7 4 18 5 8 20 18 11 16 10 14 4 24 30 39 11 21 8 18 20 24 33 41 43 49 50 51 57 56 59 61 66 63 61 60 58 52 51 53 52 50 52 58 61
19 17 9 6 4 20 29 14 14 11 7 12 27 34 38 20 18 30 28 28 30 38 42 43 50 56 59 58 55 59 61 59 61 59 59 52 48 48 48 47 49 54 57 58
6 17 14 24 20 12 49 21 47 13 13 19 34 26 18 21 31 35 38 33 35 40 45 50 56 63 66 64 57 62 60 58 59 59 55 49 46 45 45 48 51 54 52 53
9 22 6 5 18 37 41 48 54 51 43 34 33 26 31 38 44 43 40 39 40 46 49 55 63 71 78 78 60 58 58 58 60 59 53 49 46 45 48 50 52 52 47 48
11 26 13 13 20 21 34 45 48 50 50 49 59 54 38 36 30 31 35 41 47 52 59 68 71 75 79 67 56 51 56 58 59 56 51 48 46 48 49 50 46 46 41 43
23 15 11 18 15 17 11 11 14 25 27 26 21 18 20 23 29 35 41 48 53 60 69 75 74 69 70 62 55 48 54 57 57 52 48 46 47 48 48 48 40 37 40 39
Wind_Direction_500mb
33 76 165 148 291 310 138 121 131 91 269 140 204 175 209 195 184 178 182 183 183 209 17 12 29 40 39 35 32 31 29 28 24 23 22 22 19 22 23 20 18 15 9 3
29 103 225 337 25 84 80 116 95 31 174 97 198 244 219 213 207 199 196 197 195 191 191 150 31 31 32 31 31 30 28 26 26 26 25 24 20 20 19 21 19 14 11 9
123 117 5 83 37 88 28 125 180 131 22 342 39 284 195 221 217 212 211 212 203 208 202 183 20 18 21 20 22 20 21 20 19 18 16 15 16 16 16 14 13 14 13 11
87 322 56 78 67 38 160 333 117 150 141 204 164 259 229 202 205 206 207 204 203 208 222 260 349 1 7 11 12 10 11 11 10 9 10 11 12 13 13 10 9 9 9 8
184 121 123 94 91 4 178 162 150 128 110 47 200 112 253 155 212 213 208 205 207 219 240 272 331 347 357 357 360 4 4 4 4 4 4 4 5 5 4 3 4 4 4 6
118 81 67 120 89 45 140 87 47 53 54 12 233 160 266 190 210 186 200 207 205 211 224 249 306 331 338 347 348 351 355 357 359 359 359 358 359 358 356 357 360 1 360 360
57 13 53 132 95 38 78 87 9 352 3 224 146 115 248 246 228 190 192 202 200 207 217 237 277 317 328 339 341 341 343 346 350 352 353 354 354 352 352 353 354 353 354 355
149 294 171 111 161 170 175 156 164 206 208 257 336 229 251 234 257 222 201 197 193 201 213 227 263 309 330 334 334 333 333 334 338 343 346 348 348 346 346 345 346 348 347 348
122 114 6 59 70 109 216 203 172 102 44 40 230 289 308 177 98 159 175 177 191 200 213 225 249 306 316 327 329 330 333 331 328 330 334 338 341 340 338 338 339 341 342 342
192 78 16 123 79 52 148 189 84 4 141 263 277 280 246 208 211 184 175 186 195 204 215 231 246 299 303 317 321 324 337 338 328 320 322 328 332 334 332 330 332 334 336 337
129 98 203 47 206 180 102 222 39 127 154 180 254 259 217 217 197 197 199 200 203 210 226 245 252 282 288 298 302 311 334 337 327 318 312 316 324 327 326 325 325 328 331 333
198 127 163 218 257 345 176 210 162 134 232 226 155 270 282 273 218 204 209 211 219 225 240 255 250 267 274 280 281 299 323 326 323 308 309 307 316 321 321 319 319 321 324 327
202 277 42 343 348 359 211 201 180 121 95 203 145 256 3 314 6 202 196 196 208 227 240 247 255 264 262 262 271 298 318 321 313 300 299 303 309 315 314 315 313 314 317 321
126 94 171 191 196 129 203 248 187 140 138 182 230 291 244 229 210 177 175 164 216 244 251 258 258 255 258 259 269 294 316 321 312 295 290 298 304 309 309 310 310 310 313 316
117 191 155 260 233 174 206 192 199 204 206 192 262 228 222 215 208 207 199 217 292 246 247 260 263 265 261 264 268 291 312 321 310 292 287 296 301 304 306 307 306 307 310 314
352 194 115 304 264 219 259 221 219 227 234 251 263 271 228 250 207 201 223 271 262 247 260 265 261 259 258 266 276 293 314 315 304 297 291 298 301 301 303 304 304 305 309 312
144 136 105 260 335 313 290 217 210 206 203 218 233 247 168 201 209 215 222 233 241 255 269 272 274 275 276 280 279 300 308 306 303 297 295 299 300 299 301 300 302 304 307 310
129 95 66 219 7 293 253 189 168 213 240 219 256 241 191 216 240 199 223 269 256 270 277 284 290 292 293 284 283 302 299 299 296 294 298 302 300 299 298 298 300 302 304 308
153 124 103 157 208 303 294 165 157 163 270 222 229 247 214 214 258 272 261 234 260 258 279 294 301 301 295 288 295 297 293 294 298 296 299 300 295 294 294 296 297 299 303 309
126 71 144 112 179 224 243 250 166 127 294 240 206 230 160 156 151 250 191 263 248 280 300 299 300 296 292 293 296 292 291 289 294 298 294 294 290 287 289 293 296 300 305 310
149 229 212 182 240 281 244 204 149 97 242 253 202 206 168 181 202 208 268 259 271 287 299 294 290 292 298 302 297 289 286 284 295 292 293 292 288 283 286 291 294 300 306 308
174 162 184 134 168 277 182 137 186 229 299 203 173 169 177 209 253 253 261 254 269 288 297 292 294 296 299 302 295 289 285 291 291 291 292 287 281 281 284 287 294 300 304 307
246 189 181 187 207 229 189 207 216 274 320 208 184 181 236 256 269 270 263 266 284 292 295 294 294 295 295 298 296 285 287 288 286 290 288 283 281 281 284 290 296 300 302 303
238 176 203 127 231 228 227 237 250 265 271 252 224 265 277 274 281 276 270 273 279 287 288 291 292 292 293 294 290 281 284 283 282 286 282 278 276 279 285 290 294 296 299 300
170 149 193 264 284 277 261 260 268 275 279 270 262 279 278 266 263 258 261 272 282 286 289 291 291 292 292 293 284 276 276 279 280 279 275 273 274 280 284 288 290 292 296 300
190 189 192 245 218 247 284 251 267 261 254 263 266 244 254 263 266 272 279 285 290 293 295 296 298 295 293 291 281 272 275 276 278 274 273 273 276 282 287 286 284 290 297 298
Wind_Speed_850mb
10 10 7 6 1 3 8 9 9 2 2 2 7 11 15 26 25 27 22 19 14 3 2 8 15 19 24 28 32 37 39 44 45 50 51 52 56 54 53 56 58 57 56 53
12 5 3 5 6 8 8 10 4 3 2 4 1 12 16 31 31 36 30 27 24 15 9 2 7 14 21 26 30 34 39 43 46 49 51 52 51 53 56 55 55 56 59 61
9 4 3 6 9 9 8 7 6 2 1 4 5 12 12 17 37 41 37 33 29 18 9 3 4 13 20 26 32 35 39 42 45 46 46 46 46 49 50 56 60 63 62 62
11 3 4 8 6 4 5 0 3 5 7 7 8 8 11 14 26 30 50 42 35 20 9 3 5 12 19 25 30 32 36 39 42 44 48 52 54 55 55 56 55 57 59 62
3 4 5 5 3 2 4 5 6 2 4 2 7 2 11 14 20 31 47 52 40 23 11 6 8 13 17 20 23 27 31 34 37 40 44 46 48 49 50 50 51 54 57 59
6 3 4 5 4 6 10 7 7 6 4 4 6 8 9 14 22 13 34 56 45 30 17 9 8 14 17 19 20 24 27 30 33 36 39 41 44 46 49 51 54 55 56 59
2 3 1 3 8 5 2 7 5 8 6 10 1 4 18 11 12 22 47 62 51 35 23 14 10 13 16 20 23 24 26 27 30 34 37 40 43 44 47 50 53 56 59 59
11 8 7 2 2 11 8 10 9 12 6 5 7 13 13 10 13 22 49 63 52 40 29 20 12 14 17 21 24 26 28 27 29 31 34 38 42 43 43 45 46 48 52 56
9 3 1 6 2 3 6 7 7 13 3 7 7 14 14 5 4 19 39 57 52 42 34 23 15 17 19 24 24 26 29 31 32 33 34 37 42 44 44 42 43 46 49 53
7 7 3 2 3 3 7 6 6 5 3 8 8 11 13 11 15 12 24 54 50 41 34 27 23 19 21 25 25 24 27 34 36 37 38 39 43 47 45 44 43 46 49 53
6 6 1 6 10 12 1 3 4 4 8 10 3 12 11 14 23 30 37 55 48 40 32 26 26 24 25 27 25 20 25 36 39 39 40 41 45 48 48 46 45 47 49 52
7 8 7 11 2 3 7 10 9 8 11 5 4 15 5 7 12 36 47 48 41 37 28 29 32 33 35 30 23 24 30 39 42 44 44 43 45 49 48 47 46 48 49 52
10 2 5 9 8 7 6 9 7 7 5 12 11 12 2 1 2 21 33 32 29 26 29 34 39 41 36 28 26 27 32 42 45 49 47 45 47 50 49 48 50 50 52 54
8 5 11 12 9 8 6 5 11 11 7 7 19 8 7 10 11 15 26 25 14 29 36 37 39 34 32 32 32 31 40 46 46 48 49 47 48 52 52 52 52 51 53 56
8 9 4 7 8 6 9 9 15 21 20 16 25 25 15 14 19 38 33 22 19 24 24 25 26 30 36 39 37 38 48 50 46 40 45 48 52 55 54 55 53 52 55 57
4 4 5 7 2 12 13 17 18 33 38 32 39 55 15 28 20 25 36 46 36 25 26 27 33 39 42 40 42 45 54 51 41 40 45 50 56 57 56 56 53 53 55 58
10 11 6 11 7 9 18 25 43 13 10 30 26 40 12 6 22 30 27 23 25 26 26 30 33 38 44 47 44 54 54 47 46 44 50 54 54 54 57 55 54 54 55 59
10 8 5 6 7 4 12 6 9 35 23 31 22 14 16 22 30 16 18 26 23 22 25 28 32 36 40 43 49 60 48 46 48 52 54 56 55 55 55 55 54 54 56 60
7 9 3 6 7 16 18 9 13 15 19 32 44 45 27 22 16 41 34 18 17 17 25 34 39 44 45 51 60 54 51 51 55 58 59 58 56 54 55 54 55 55 57 60
8 7 7 5 8 15 10 6 11 10 12 22 35 24 25 27 4 9 11 16 20 25 33 42 47 48 52 54 56 56 58 59 61 60 63 60 53 53 55 55 54 54 57 61
7 4 18 5 8 20 18 11 16 10 14 4 24 30 39 11 21 8 18 20 24 33 41 43 49 50 51 57 56 59 61 66 63 61 60 58 52 51 53 52 50 52 58 61
19 17 9 6 4 20 29 14 14 11 7 12 27 34 38 20 18 30 28 28 30 38 42 43 50 56 59 58 55 59 61 59 61 59 59 52 48 48 48 47 49 54 57 58
6 17 14 24 20 12 49 21 47 13 13 19 34 26 18 21 31 35 38 33 35 40 45 50 56 63 66 64 57 62 60 58 59 59 55 49 46 45 45 48 51 54 52 53
9 22 6 5 18 37 41 48 54 51 43 34 33 26 31 38 44 43 40 39 40 46 49 55 63 71 78 78 60 58 58 58 60 59 53 49 46 45 48 50 52 52 47 48
11 26 13 13 20 21 34 45 48 50 50 49 59 54 38 36 30 31 35 41 47 52 59 68 71 75 79 67 56 51 56 58 59 56 51 48 46 48 49 50 46 46 41 43
23 15 11 18 15 17 11 11 14 25 27 26 21 18 20 23 29 35 41 48 53 60 69 75 74 69 70 62 55 48 54 57 57 52 48 46 47 48 48 48 40 37 40 39
Wind_Direction_850mb
33 76 165 148 291 310 138 121 131 91 269 140 204 175 209 195 184 178 182 183 183 209 17 12 29 40 39 35 32 31 29 28 24 23 22 22 19 22 23 20 18 15 9 3
29 103 225 337 25 84 80 116 95 31 174 97 198 244 219 213 207 199 196 197 195 191 191 150 31 31 32 31 31 30 28 26 26 26 25 24 20 20 19 21 19 14 11 9
123 117 5 83 37 88 28 125 180 131 22 342 39 284 195 221 217 212 211 212 203 208 202 183 20 18 21 20 22 20 21 20 19 18 16 15 16 16 16 14 13 14 13 11
87 322 56 78 67 38 160 333 117 150 141 204 164 259 229 202 205 206 207 204 203 208 222 260 349 1 7 11 12 10 11 11 10 9 10 11 12 13 13 10 9 9 9 8
184 121 123 94 91 4 178 162 150 128 110 47 200 112 253 155 212 213 208 205 207 219 240 272 331 347 357 357 360 4 4 4 4 4 4 4 5 5 4 3 4 4 4 6
118 81 67 120 89 45 140 87 47 53 54 12 233 160 266 190 210 186 200 207 205 211 224 249 306 331 338 347 348 351 355 357 359 359 359 358 359 358 356 357 360 1 360 360
57 13 53 132 95 38 78 87 9 352 3 224 146 115 248 246 228 190 192 202 200 207 217 237 277 317 328 339 341 341 343 346 350 352 353 354 354 352 352 353 354 353 354 355
149 294 171 111 161 170 175 156 164 206 208 257 336 229 251 234 257 222 201 197 193 201 213 227 263 309 330 334 334 333 333 334 338 343 346 348 348 346 346 345 346 348 347 348
122 114 6 59 70 109 216 203 172 102 44 40 230 289 308 177 98 159 175 177 191 200 213 225 249 306 316 327 329 330 333 331 328 330 334 338 341 340 338 338 339 341 342 342
192 78 16 123 79 52 148 189 84 4 141 263 277 280 246 208 211 184 175 186 195 204 215 231 246 299 303 317 321 324 337 338 328 320 322 328 332 334 332 330 332 334 336 337
129 98 203 47 206 180 102 222 39 127 154 180 254 259 217 217 197 197 199 200 203 210 226 245 252 282 288 298 302 311 334 337 327 318 312 316 324 327 326 325 325 328 331 333
198 127 163 218 257 345 176 210 162 134 232 226 155 270 282 273 218 204 209 211 219 225 240 255 250 267 274 280 281 299 323 326 323 308 309 307 316 321 321 319 319 321 324 327
202 277 42 343 348 359 211 201 180 121 95 203 145 256 3 314 6 202 196 196 208 227 240 247 255 264 262 262 271 298 318 321 313 300 299 303 309 315 314 315 313 314 317 321
126 94 171 191 196 129 203 248 187 140 138 182 230 291 244 229 210 177 175 164 216 244 251 258 258 255 258 259 269 294 316 321 312 295 290 298 304 309 309 310 310 310 313 316
117 191 155 260 233 174 206 192 199 204 206 192 262 228 222 215 208 207 199 217 292 246 247 260 263 265 261 264 268 291 312 321 310 292 287 296 301 304 306 307 306 307 310 314
352 194 115 304 264 219 259 221 219 227 234 251 263 271 228 250 207 201 223 271 262 247 260 265 261 259 258 266 276 293 314 315 304 297 291 298 301 301 303 304 304 305 309 312
144 136 105 260 335 313 290 217 210 206 203 218 233 247 168 201 209 215 222 233 241 255 269 272 274 275 276 280 279 300 308 306 303 297 295 299 300 299 301 300 302 304 307 310
129 95 66 219 7 293 253 189 168 213 240 219 256 241 191 216 240 199 223 269 256 270 277 284 290 292 293 284 283 302 299 299 296 294 298 302 300 299 298 298 300 302 304 308
153 124 103 157 208 303 294 165 157 163 270 222 229 247 214 214 258 272 261 234 260 258 279 294 301 301 295 288 295 297 293 294 298 296 299 300 295 294 294 296 297 299 303 309
126 71 144 112 179 224 243 250 166 127 294 240 206 230 160 156 151 250 191 263 248 280 300 299 300 296 292 293 296 292 291 289 294 298 294 294 290 287 289 293 296 300 305 310
149 229 212 182 240 281 244 204 149 97 242 253 202 206 168 181 202 208 268 259 271 287 299 294 290 292 298 302 297 289 286 284 295 292 293 292 288 283 286 291 294 300 306 308
174 162 184 134 168 277 182 137 186 229 299 203 173 169 177 209 253 253 261 254 269 288 297 292 294 296 299 302 295 289 285 291 291 291 292 287 281 281 284 287 294 300 304 307
246 189 181 187 207 229 189 207 216 274 320 208 184 181 236 256 269 270 263 266 284 292 295 294 294 295 295 298 296 285 287 288 286 290 288 283 281 281 284 290 296 300 302 303
238 176 203 127 231 228 227 237 250 265 271 252 224 265 277 274 281 276 270 273 279 287 288 291 292 292 293 294 290 281 284 283 282 286 282 278 276 279 285 290 294 296 299 300
170 149 193 264 284 277 261 260 268 275 279 270 262 279 278 266 263 258 261 272 282 286 289 291 291 292 292 293 284 276 276 279 280 279 275 273 274 280 284 288 290 292 296 300
190 189 192 245 218 247 284 251 267 261 254 263 266 244 254 263 266 272 279 285 290 293 295 296 298 295 293 291 281 272 275 276 278 274 273 273 276 282 287 286 284 290 297 298